[[{"header":{"parameterUnit":"m.s-1","parameterCategory":2,"la1":30.2991,"la2":30.254,"lo1":-89.0895,"lo2":-89.0444,"dy":0.0017,"dx":0.0017,"nx":28,"ny":28,"refTime":"2024-03-28T03:00:00:Z","depth":"0","parameterNumber":2,"parameterNumberName":"U-component_of_CURRENTS"},"data":[0,0,0,0,0,0,0,0,0,0,0,0,0,0,0,0,0,0,0,0,0,0,0,0,0,0,0,0,0,0,0,0,0,0,0,0,0,0,0,0,0,0,0,0,0,0,0,0,0,0,0,0,0,0,0,0,0,0,0.2987,0.2988,0,0.3036,0.3037,0.3037,0.3039,0.3038,0.3038,0.3037,0.304,0.304,0.3041,0,0,0,0,0,0,0,0,0,0,0,0,0,0.2918,0.2919,0.2987,0.2988,0.2989,0.3036,0.3037,0.3037,0.3039,0.3038,0.3038,0.3037,0.304,0.304,0.3041,0,0,0,0,0,0,0,0,0,0,0,0,0,0.2955,0.292,0.2987,0.2996,0.2997,0.3036,0.3037,0.3038,0.3039,0.3038,0.3037,0.3037,0.3039,0.304,0.3041,0.3061,0,0,0.3043,0.3044,0,0,0,0,0,0,0,0,0.2953,0.2957,0.2994,0.2996,0.2997,0.3032,0.3014,0.3043,0.3039,0.3022,0.3037,0.3036,0.3034,0.3035,0.3045,0.3061,0.3061,0.3043,0.3044,0.3044,0.3044,0,0,0,0,0,0,0,0.295,0.2955,0.3006,0.2995,0.2997,0.3006,0.301,0.3019,0.303,0.3024,0.3024,0.3031,0.3034,0.3044,0.3045,0.3061,0.3043,0.3044,0.3045,0.3045,0.3137,0.3139,0,0,0,0,0,0,0.2946,0.2953,0.3004,0.3007,0.2974,0.3007,0.3012,0.302,0.3031,0.3032,0.3032,0.3031,0.3043,0.3044,0.3045,0.3104,0.3044,0.3045,0.3045,0.3135,0.3138,0.314,0,0,0,0,0,0,0.2944,0.295,0.3002,0.2982,0.2989,0.3009,0.3019,0.3022,0.3036,0.3038,0.3038,0.3044,0.3043,0.3044,0.307,0.3102,0.3045,0.3046,0.3133,0.3136,0.3139,0.3199,0,0,0,0,0,0,0.2942,0.2949,0.2954,0.2982,0.299,0.3034,0.302,0.3023,0.3042,0.3042,0.3048,0.3047,0.3042,0.3069,0.3071,0.3102,0.3047,0.313,0.3134,0.3138,0.3194,0.3204,0.3211,0,0,0,0,0,0.294,0.2948,0.2954,0.2961,0.2996,0.3035,0.3041,0.3051,0.3043,0.3059,0.3067,0.3047,0.3094,0.3071,0.3073,0.3105,0.3129,0.3133,0.3137,0.3191,0.3202,0.3211,0,0,0,0,0,0,0.2906,0.295,0.2957,0.2974,0.3007,0.3036,0.305,0.3057,0.3077,0.3076,0.3069,0.307,0.3108,0.3101,0.3076,0.3145,0.311,0.3115,0.315,0.316,0.3168,0.3196,0.3047,0,0,0,0,0,0.2905,0.293,0.2968,0.2981,0.3001,0.3028,0.3043,0.3057,0.3078,0.3085,0.3089,0.3102,0.313,0.3138,0.3155,0.3188,0.3238,0.3213,0.3221,0.3228,0.3254,0.3362,0.3383,0.3154,0.3154,0.3154,0,0,0.2889,0.2921,0.293,0.2978,0.3003,0.3043,0.3035,0.3069,0.3104,0.3083,0.3121,0.3131,0.3146,0.3189,0.3205,0.3184,0.3323,0.3234,0.324,0.3262,0.3369,0.3391,0.3411,0.3157,0.3157,0.3156,0,0,0.2884,0.2908,0.2933,0.2973,0.3025,0.3052,0.3065,0.3105,0.3125,0.3167,0.3169,0.3207,0.3225,0.3259,0.3274,0.3343,0.3366,0.3337,0.3399,0.3503,0.3523,0.3541,0.3649,0.3676,0.3338,0.3338,0.3338,0,0.2855,0.2906,0.2944,0.2989,0.3025,0.3059,0.31,0.3135,0.3176,0.3215,0.3186,0.3273,0.327,0.3357,0.3374,0.3364,0.3427,0.3354,0.3516,0.3535,0.3553,0.3658,0.3688,0.3342,0.3341,0.3341,0.334,0,0.2884,0.2926,0.2948,0.3021,0.3065,0.3107,0.3168,0.3214,0.3239,0.328,0.3365,0.3376,0.3439,0.3435,0.342,0.3544,0.355,0.3516,0.3491,0.358,0.3685,0.3714,0.3346,0.3345,0.3344,0.3343,0,0,0.2802,0.2938,0.2943,0.3003,0.3091,0.3135,0.321,0.3303,0.3383,0.3415,0.3522,0.3551,0.3575,0.3597,0.3593,0.3662,0.3827,0.364,0.3644,0.3749,0.4077,0.4046,0.4076,0.3821,0.3826,0.383,0.4105,0,0.2807,0.2904,0.2969,0.3062,0.3124,0.3202,0.3279,0.3372,0.3448,0.3563,0.3611,0.3699,0.3634,0.3675,0.3741,0.3806,0.3906,0.3757,0.3974,0.3981,0.3945,0.4109,0.3886,0.4109,0.4134,0.4139,0.4143,0,0.2813,0.2888,0.2981,0.3128,0.3161,0.3223,0.3385,0.3462,0.3629,0.3694,0.38,0.3847,0.3966,0.3891,0.4079,0.3988,0.4054,0.4092,0.4103,0.4077,0.4006,0.4022,0.4162,0.4082,0.4188,0.4185,0.4182,0,0.2773,0.2896,0.2979,0.3026,0.3188,0.3255,0.3343,0.3504,0.3608,0.3798,0.3891,0.4032,0.4118,0.4218,0.4286,0.4208,0.4502,0.4405,0.4455,0.4453,0.4309,0.4286,0.4397,0.4582,0.4582,0.4581,0.458,0,0.2776,0.2844,0.2973,0.3031,0.3142,0.3255,0.3404,0.3516,0.3707,0.3837,0.3957,0.4077,0.4203,0.436,0.4401,0.4544,0.4612,0.4528,0.4544,0.4323,0.4299,0.4255,0.42,0.4591,0.4589,0.4587,0.4585,0,0.2746,0.283,0.2931,0.3084,0.3138,0.322,0.3426,0.3541,0.3712,0.3891,0.3956,0.4176,0.4361,0.4499,0.4697,0.4697,0.4706,0.486,0.4599,0.4578,0.4483,0.4438,0.4427,0.4299,0.496,0.4962,0.4963,0,0.2758,0.2802,0.2941,0.3,0.3077,0.3216,0.3319,0.3522,0.3644,0.392,0.4,0.4255,0.4412,0.4729,0.4792,0.4952,0.4776,0.4826,0.4623,0.4514,0.4477,0.4273,0.4149,0.4468,0.4465,0.4463,0.4461,0,0.2769,0.2798,0.2879,0.2985,0.3089,0.3186,0.3343,0.3442,0.3666,0.3806,0.4001,0.4163,0.448,0.456,0.4797,0.4829,0.4578,0.4778,0.4731,0.4185,0.3905,0.3774,0.4265,0.4438,0.444,0.4442,0.4443,0.4444,0.2767,0.2796,0.2885,0.297,0.3062,0.3119,0.3148,0.3302,0.3446,0.3582,0.3842,0.3983,0.4235,0.4526,0.4569,0.4516,0.4479,0.4363,0.4353,0.4185,0.3942,0.4402,0.4538,0.454,0.4543,0.4545,0.4546,0,0.2765,0.2799,0.2873,0.2945,0.2955,0.3031,0.313,0.3109,0.3163,0.336,0.3483,0.3725,0.3865,0.4062,0.4199,0.412,0.3876,0.4014,0.3658,0.3582,0.407,0.3927,0.3852,0.3852,0.3852,0.3852,0.3852,0.3853,0.2789,0.282,0.2833,0.2819,0.2834,0.2776,0.2767,0.2752,0.2842,0.2942,0.307,0.3261,0.37,0.3919,0.3921,0.3816,0.3542,0.3372,0.3418,0.3752,0.3781,0.3809,0.3663,0.3534,0.3534,0.2708,0.2703,0.2698]},{"header":{"parameterUnit":"m.s-1","parameterCategory":2,"la1":30.2991,"la2":30.254,"lo1":-89.0895,"lo2":-89.0444,"dy":0.0017,"dx":0.0017,"nx":28,"ny":28,"refTime":"2024-03-28T03:00:00:Z","depth":"0","parameterNumber":3,"parameterNumberName":"V-component_of_CURRENTS"},"data":[0,0,0,0,0,0,0,0,0,0,0,0,0,0,0,0,0,0,0,0,0,0,0,0,0,0,0,0,0,0,0,0,0,0,0,0,0,0,0,0,0,0,0,0,0,0,0,0,0,0,0,0,0,0,0,0,0,0,-0.0322,-0.0323,0,-0.0458,-0.046,-0.0462,-0.0568,-0.0569,-0.0569,-0.0569,-0.0785,-0.0791,-0.0796,0,0,0,0,0,0,0,0,0,0,0,0,0,-0.0238,-0.0239,-0.0322,-0.0323,-0.0324,-0.0458,-0.046,-0.0463,-0.0568,-0.0569,-0.0569,-0.0569,-0.0784,-0.079,-0.0797,0,0,0,0,0,0,0,0,0,0,0,0,0,-0.0321,-0.0239,-0.0322,-0.0387,-0.0394,-0.0457,-0.046,-0.0464,-0.0568,-0.0569,-0.0569,-0.057,-0.0782,-0.0789,-0.0798,-0.0839,0,0,-0.0823,-0.0826,0,0,0,0,0,0,0,0,-0.0316,-0.0325,-0.0376,-0.0383,-0.039,-0.049,-0.051,-0.059,-0.0568,-0.051,-0.0569,-0.057,-0.0689,-0.0705,-0.0739,-0.0849,-0.0858,-0.0823,-0.0828,-0.0832,-0.0834,0,0,0,0,0,0,0,-0.031,-0.032,-0.0384,-0.0377,-0.0386,-0.0438,-0.045,-0.0526,-0.0602,-0.0515,-0.0521,-0.0524,-0.0694,-0.0731,-0.0745,-0.0861,-0.0823,-0.083,-0.0835,-0.0839,-0.0961,-0.0959,0,0,0,0,0,0,-0.0273,-0.0314,-0.0379,-0.0387,-0.0345,-0.0438,-0.0452,-0.0464,-0.06,-0.0619,-0.0523,-0.0528,-0.0716,-0.0735,-0.0753,-0.0773,-0.0832,-0.0839,-0.0844,-0.0963,-0.0961,-0.0959,0,0,0,0,0,0,-0.0271,-0.0278,-0.0374,-0.0347,-0.0362,-0.0437,-0.045,-0.0466,-0.0491,-0.0604,-0.0626,-0.053,-0.0718,-0.0741,-0.0804,-0.0783,-0.0843,-0.0851,-0.0965,-0.0962,-0.096,-0.0837,0,0,0,0,0,0,-0.0268,-0.0277,-0.0277,-0.0345,-0.0362,-0.0391,-0.045,-0.0468,-0.0489,-0.0497,-0.0617,-0.0638,-0.072,-0.0791,-0.0812,-0.0796,-0.0857,-0.0967,-0.0963,-0.096,-0.0843,-0.083,-0.0819,0,0,0,0,0,-0.0265,-0.0259,-0.0277,-0.0284,-0.0359,-0.039,-0.0404,-0.0465,-0.0488,-0.0492,-0.057,-0.0634,-0.0785,-0.0797,-0.0822,-0.0807,-0.0968,-0.0964,-0.0961,-0.0848,-0.0833,-0.082,0,0,0,0,0,0,-0.0217,-0.027,-0.0291,-0.03,-0.033,-0.0404,-0.0414,-0.0447,-0.0513,-0.0523,-0.063,-0.0656,-0.07,-0.0764,-0.0773,-0.0828,-0.0881,-0.0882,-0.0786,-0.0773,-0.0761,-0.0743,-0.0864,0,0,0,0,0,-0.0204,-0.0217,-0.0265,-0.0267,-0.028,-0.0341,-0.0362,-0.0396,-0.0457,-0.0487,-0.0564,-0.0642,-0.0706,-0.0745,-0.0815,-0.0854,-0.0892,-0.0853,-0.0842,-0.0831,-0.083,-0.0863,-0.0855,-0.0946,-0.0946,-0.0947,0,0,-0.0181,-0.0212,-0.0218,-0.0257,-0.0292,-0.03,-0.0357,-0.0374,-0.0383,-0.05,-0.0541,-0.0609,-0.0706,-0.0749,-0.0772,-0.08,-0.0817,-0.0827,-0.0818,-0.0822,-0.0858,-0.085,-0.0842,-0.0944,-0.0944,-0.0945,0,0,-0.0137,-0.0171,-0.0166,-0.0187,-0.022,-0.026,-0.0251,-0.0311,-0.0342,-0.0383,-0.0462,-0.051,-0.0615,-0.0675,-0.072,-0.0682,-0.0753,-0.0696,-0.0633,-0.0663,-0.0656,-0.0651,-0.0655,-0.0651,-0.0692,-0.0691,-0.0691,0,-0.01,-0.0111,-0.0164,-0.0162,-0.017,-0.0229,-0.0215,-0.0256,-0.0325,-0.0343,-0.0376,-0.0504,-0.0579,-0.0633,-0.0618,-0.0658,-0.0679,-0.0681,-0.0648,-0.0644,-0.0641,-0.0646,-0.0644,-0.0685,-0.0686,-0.0686,-0.0687,0,-0.0059,-0.0063,-0.0057,-0.0079,-0.0095,-0.009,-0.014,-0.0156,-0.0196,-0.0241,-0.0292,-0.0394,-0.0466,-0.0488,-0.0551,-0.0558,-0.058,-0.0628,-0.0684,-0.0624,-0.0633,-0.0632,-0.0676,-0.0678,-0.068,-0.0682,0,0,0.003,-0.0018,-0.0011,-0.0008,-0.0049,-0.0051,-0.0061,-0.0087,-0.0076,-0.0159,-0.016,-0.0271,-0.0319,-0.0371,-0.0447,-0.0479,-0.0461,-0.0533,-0.0538,-0.0535,-0.0506,-0.0495,-0.0494,-0.0505,-0.0505,-0.0505,-0.0511,0,0.0089,0.0109,0.0064,0.0095,0.0104,0.005,0.005,0.0018,-0.0017,-0.0033,-0.014,-0.0177,-0.0278,-0.0297,-0.0347,-0.0434,-0.0458,-0.0454,-0.0567,-0.057,-0.0567,-0.0493,-0.0474,-0.0476,-0.0511,-0.0511,-0.0511,0,0.0152,0.0155,0.0191,0.018,0.0182,0.0195,0.0198,0.0189,0.0142,0.0116,0.0052,-0.0033,-0.0104,-0.0186,-0.0314,-0.0306,-0.0391,-0.0462,-0.0465,-0.0503,-0.0558,-0.0549,-0.0474,-0.0693,-0.0511,-0.0511,-0.0511,0,0.0243,0.0247,0.0278,0.0277,0.0258,0.0276,0.0271,0.0245,0.0268,0.0222,0.0242,0.0109,0.0085,-0.0065,-0.0221,-0.0263,-0.0342,-0.0423,-0.0494,-0.0494,-0.0526,-0.0528,-0.0679,-0.0501,-0.0501,-0.0501,-0.0501,0,0.0318,0.035,0.0331,0.0356,0.0417,0.0368,0.0437,0.0417,0.0424,0.0477,0.0332,0.0361,0.0117,0.0029,-0.0152,-0.0297,-0.029,-0.0463,-0.0492,-0.0477,-0.0475,-0.0708,-0.0825,-0.0501,-0.0501,-0.0501,-0.0501,0,0.041,0.0391,0.0441,0.0448,0.0462,0.0512,0.0562,0.0618,0.0602,0.0676,0.067,0.0579,0.0466,0.0229,0.0023,-0.0164,-0.0442,-0.039,-0.0339,-0.0363,-0.066,-0.0768,-0.0936,-0.1014,-0.048,-0.048,-0.0479,0,0.0448,0.0484,0.0532,0.0588,0.0603,0.0667,0.0724,0.0719,0.0799,0.0822,0.0886,0.0797,0.0772,0.0477,0.0128,-0.0169,-0.0388,-0.0355,-0.0451,-0.0652,-0.0796,-0.0889,-0.095,-0.0433,-0.0433,-0.0432,-0.0432,0,0.0537,0.056,0.0605,0.0726,0.0804,0.0892,0.098,0.1068,0.1079,0.1156,0.1248,0.1228,0.093,0.0635,0.0212,-0.0009,-0.0498,-0.0354,-0.0589,-0.0782,-0.0868,-0.0963,-0.0442,-0.0427,-0.0428,-0.0428,-0.0428,-0.0428,0.0613,0.0676,0.075,0.0869,0.0971,0.1115,0.1201,0.1317,0.1459,0.1557,0.1521,0.1526,0.1065,0.0497,0.016,-0.0447,-0.0468,-0.0666,-0.0777,-0.0852,-0.0941,-0.0386,-0.0396,-0.0396,-0.0396,-0.0397,-0.0397,0,0.0698,0.0773,0.0891,0.1027,0.1163,0.1193,0.1369,0.1469,0.1654,0.1754,0.1813,0.1616,0.105,0.0468,-0.0351,-0.081,-0.098,-0.1058,-0.1218,-0.126,-0.079,-0.0804,-0.087,-0.087,-0.087,-0.0869,-0.0869,-0.0869,0.0745,0.0868,0.093,0.1163,0.1271,0.1438,0.1541,0.1706,0.1828,0.1981,0.1999,0.1956,0.1552,0.0028,-0.1022,-0.1265,-0.1576,-0.1645,-0.1805,-0.1535,-0.1509,-0.1484,-0.1528,-0.1744,-0.1745,-0.2227,-0.2232,-0.2236]}],[{"header":{"parameterUnit":"m.s-1","parameterCategory":2,"la1":30.2991,"la2":30.254,"lo1":-89.0895,"lo2":-89.0444,"dy":0.0017,"dx":0.0017,"nx":28,"ny":28,"refTime":"2024-03-28T03:00:00:Z","depth":"2","parameterNumber":2,"parameterNumberName":"U-component_of_CURRENTS"},"data":[0,0,0,0,0,0,0,0,0,0,0,0,0,0,0,0,0,0,0,0,0,0,0,0,0,0,0,0,0,0,0,0,0,0,0,0,0,0,0,0,0,0,0,0,0,0,0,0,0,0,0,0,0,0,0,0,0,0,0.2714,0.2715,0,0.2776,0.2776,0.2777,0.2776,0.2775,0.2774,0.2774,0.28,0.2801,0.2802,0,0,0,0,0,0,0,0,0,0,0,0,0,0.263,0.2631,0.2714,0.2715,0.2716,0.2776,0.2776,0.2777,0.2776,0.2775,0.2774,0.2774,0.28,0.2801,0.2803,0,0,0,0,0,0,0,0,0,0,0,0,0,0.2674,0.2631,0.2714,0.2725,0.2727,0.2776,0.2776,0.2777,0.2776,0.2775,0.2774,0.2773,0.2799,0.2801,0.2803,0.2831,0,0,0.2808,0.2809,0,0,0,0,0,0,0,0,0.2671,0.2676,0.2722,0.2724,0.2727,0.277,0.2756,0.2794,0.2776,0.2754,0.2774,0.2773,0.2789,0.2792,0.2802,0.2832,0.2833,0.2809,0.281,0.281,0.2811,0,0,0,0,0,0,0,0.2668,0.2674,0.2736,0.2724,0.2726,0.2739,0.2743,0.2764,0.2773,0.2756,0.2757,0.2769,0.2789,0.28,0.2802,0.2834,0.2808,0.281,0.2811,0.2812,0.2921,0.2923,0,0,0,0,0,0,0.2666,0.2671,0.2734,0.2738,0.27,0.2741,0.2746,0.2754,0.2773,0.2777,0.2769,0.2768,0.2797,0.28,0.2803,0.2873,0.281,0.2812,0.2813,0.2919,0.2921,0.2923,0,0,0,0,0,0,0.2664,0.2671,0.2731,0.2708,0.2717,0.2743,0.2753,0.2756,0.2768,0.2784,0.2786,0.2778,0.2797,0.28,0.2836,0.2873,0.2813,0.2815,0.2917,0.292,0.2922,0.2991,0,0,0,0,0,0,0.2661,0.2669,0.2676,0.2708,0.2718,0.276,0.2754,0.2758,0.2778,0.2777,0.2793,0.2794,0.2796,0.2833,0.2838,0.2874,0.2816,0.2915,0.2918,0.2922,0.2986,0.2995,0.3003,0,0,0,0,0,0.2658,0.2673,0.2676,0.2684,0.2726,0.2761,0.2767,0.2781,0.2779,0.2787,0.2808,0.2794,0.2858,0.2837,0.2841,0.2879,0.2913,0.2917,0.2921,0.2982,0.2994,0.3003,0,0,0,0,0,0,0.2631,0.2675,0.2679,0.2703,0.2729,0.2761,0.2784,0.2786,0.2809,0.2816,0.2817,0.2822,0.2866,0.2864,0.284,0.2921,0.2883,0.2888,0.2928,0.2939,0.2947,0.2963,0.2818,0,0,0,0,0,0.2631,0.2655,0.2691,0.2707,0.2731,0.2757,0.2774,0.2784,0.2811,0.282,0.2835,0.2858,0.2888,0.2905,0.2926,0.2971,0.3005,0.2998,0.3007,0.3014,0.3031,0.3127,0.3147,0.2937,0.2937,0.2937,0,0,0.2617,0.2651,0.2658,0.2704,0.2734,0.2771,0.2765,0.2801,0.2831,0.2821,0.2872,0.2887,0.2906,0.2959,0.2978,0.2961,0.3092,0.3019,0.3025,0.3039,0.3134,0.3155,0.3173,0.294,0.2939,0.2939,0,0,0.2619,0.2646,0.2674,0.2706,0.276,0.2785,0.2796,0.284,0.2862,0.2908,0.2916,0.2961,0.2993,0.303,0.3047,0.3118,0.3132,0.3115,0.3177,0.3271,0.3289,0.3306,0.3378,0.3401,0.3123,0.3123,0.3123,0,0.2596,0.2646,0.2683,0.2728,0.2765,0.2793,0.2834,0.2866,0.291,0.2957,0.293,0.3029,0.3034,0.3123,0.3143,0.314,0.3187,0.3135,0.3284,0.3301,0.3317,0.3387,0.3411,0.3127,0.3126,0.3126,0.3126,0,0.2625,0.2669,0.2697,0.2765,0.2806,0.2848,0.2905,0.2953,0.2983,0.3024,0.3113,0.313,0.3205,0.3199,0.3189,0.3308,0.3302,0.3282,0.3259,0.3343,0.341,0.3434,0.3132,0.3131,0.313,0.3129,0,0,0.2557,0.2688,0.2695,0.2749,0.2834,0.2873,0.2954,0.3046,0.3115,0.3159,0.3274,0.3303,0.3338,0.3361,0.3363,0.3417,0.3558,0.3398,0.3401,0.3473,0.3765,0.3649,0.3664,0.3569,0.3573,0.3577,0.3768,0,0.2565,0.2661,0.2724,0.2811,0.2874,0.2948,0.3024,0.3114,0.3181,0.3302,0.3365,0.3456,0.3394,0.3443,0.35,0.3543,0.3624,0.3508,0.3671,0.3676,0.3566,0.3689,0.3402,0.3538,0.3791,0.3795,0.3798,0,0.2575,0.2648,0.2742,0.2879,0.2913,0.2968,0.3118,0.3191,0.3363,0.3426,0.3543,0.3601,0.3723,0.3653,0.3791,0.3723,0.3769,0.3778,0.3786,0.3673,0.3605,0.3495,0.3572,0.3838,0.3834,0.3831,0.3829,0,0.2542,0.2661,0.2745,0.2786,0.2937,0.3008,0.3093,0.324,0.3336,0.3534,0.363,0.3767,0.3874,0.3934,0.397,0.3908,0.4117,0.4042,0.3986,0.3978,0.3762,0.3726,0.4181,0.4181,0.418,0.418,0.4179,0,0.2548,0.2613,0.2741,0.2793,0.29,0.3012,0.3152,0.3247,0.3436,0.3558,0.3707,0.3813,0.3952,0.408,0.4074,0.4113,0.4224,0.4033,0.4036,0.3774,0.3739,0.4008,0.3986,0.4187,0.4185,0.4184,0.4183,0,0.252,0.2604,0.2695,0.2842,0.2899,0.2976,0.318,0.3287,0.3446,0.3621,0.3702,0.3928,0.4078,0.4193,0.4327,0.4249,0.4284,0.4281,0.3955,0.3913,0.4054,0.4033,0.4231,0.4228,0.4227,0.4225,0.4224,0,0.2525,0.2572,0.2704,0.2758,0.2831,0.2975,0.3094,0.3283,0.339,0.3635,0.372,0.3969,0.4068,0.4251,0.425,0.4294,0.4343,0.3993,0.3802,0.4085,0.4069,0.405,0.4032,0.3555,0.3548,0.3543,0.3538,0,0.252,0.2552,0.2627,0.2738,0.285,0.2952,0.3116,0.3198,0.341,0.3521,0.3654,0.3752,0.3995,0.3923,0.4032,0.3986,0.3948,0.3879,0.4328,0.3562,0.3456,0.3436,0.344,0.349,0.3495,0.3498,0.3501,0.3503,0.2505,0.2534,0.263,0.2705,0.2815,0.2878,0.2903,0.3055,0.3161,0.325,0.3449,0.3473,0.3595,0.3597,0.3533,0.3517,0.3753,0.3535,0.3549,0.3569,0.3432,0.3327,0.3311,0.3315,0.3318,0.3321,0.3323,0,0.2497,0.2539,0.2602,0.2669,0.2684,0.2783,0.288,0.2851,0.2858,0.3008,0.3061,0.2886,0.2886,0.3031,0.294,0.2933,0.2883,0.2802,0.2705,0.2758,0.2805,0.2623,0.229,0.2287,0.2283,0.2279,0,0,0.2513,0.2542,0.2541,0.2509,0.2538,0.2509,0.2496,0.2463,0.2513,0.2473,0.2474,0.2702,0.2887,0.2511,0.2516,0.2379,0.2529,0.2293,0.3136,0.3074,0.3114,0.3262,0.3048,0,0,0,0,0]},{"header":{"parameterUnit":"m.s-1","parameterCategory":2,"la1":30.2991,"la2":30.254,"lo1":-89.0895,"lo2":-89.0444,"dy":0.0017,"dx":0.0017,"nx":28,"ny":28,"refTime":"2024-03-28T03:00:00:Z","depth":"2","parameterNumber":3,"parameterNumberName":"V-component_of_CURRENTS"},"data":[0,0,0,0,0,0,0,0,0,0,0,0,0,0,0,0,0,0,0,0,0,0,0,0,0,0,0,0,0,0,0,0,0,0,0,0,0,0,0,0,0,0,0,0,0,0,0,0,0,0,0,0,0,0,0,0,0,0,-0.0086,-0.0086,0,-0.0196,-0.0198,-0.0199,-0.0278,-0.0278,-0.0278,-0.0279,-0.0455,-0.0459,-0.0463,0,0,0,0,0,0,0,0,0,0,0,0,0,-0.001,-0.0011,-0.0085,-0.0086,-0.0087,-0.0196,-0.0198,-0.02,-0.0278,-0.0278,-0.0279,-0.0279,-0.0453,-0.0458,-0.0464,0,0,0,0,0,0,0,0,0,0,0,0,0,-0.0078,-0.0011,-0.0085,-0.0136,-0.0142,-0.0195,-0.0198,-0.02,-0.0278,-0.0278,-0.0279,-0.0279,-0.0451,-0.0458,-0.0465,-0.0499,0,0,-0.0485,-0.0488,0,0,0,0,0,0,0,0,-0.0074,-0.0081,-0.0128,-0.0133,-0.0139,-0.022,-0.0235,-0.0302,-0.0278,-0.0231,-0.0279,-0.0279,-0.0379,-0.0392,-0.0417,-0.0507,-0.0515,-0.0486,-0.049,-0.0493,-0.0495,0,0,0,0,0,0,0,-0.0069,-0.0077,-0.0134,-0.0129,-0.0135,-0.0176,-0.0186,-0.0249,-0.0306,-0.0235,-0.024,-0.0245,-0.0383,-0.041,-0.0422,-0.0518,-0.0486,-0.0491,-0.0496,-0.0498,-0.061,-0.0608,0,0,0,0,0,0,-0.0042,-0.0072,-0.013,-0.0137,-0.0101,-0.0177,-0.0188,-0.0197,-0.0304,-0.0319,-0.0244,-0.0248,-0.0399,-0.0414,-0.0428,-0.0457,-0.0493,-0.0499,-0.0503,-0.0611,-0.0609,-0.0608,0,0,0,0,0,0,-0.004,-0.0047,-0.0126,-0.0103,-0.0116,-0.0177,-0.0187,-0.0199,-0.0219,-0.031,-0.0327,-0.025,-0.04,-0.0419,-0.0478,-0.0465,-0.0502,-0.0508,-0.0612,-0.061,-0.0609,-0.0526,0,0,0,0,0,0,-0.0038,-0.0045,-0.0048,-0.0101,-0.0116,-0.014,-0.0186,-0.0201,-0.022,-0.0225,-0.0321,-0.0338,-0.0401,-0.0468,-0.0485,-0.0475,-0.0513,-0.0613,-0.0611,-0.0609,-0.053,-0.0521,-0.0514,0,0,0,0,0,-0.0035,-0.0033,-0.0047,-0.0054,-0.0115,-0.0138,-0.015,-0.0198,-0.0219,-0.0219,-0.029,-0.0335,-0.0466,-0.0473,-0.0493,-0.0485,-0.0614,-0.0612,-0.0609,-0.0533,-0.0523,-0.0515,0,0,0,0,0,0,0.0,-0.0042,-0.0059,-0.007,-0.0092,-0.015,-0.016,-0.0186,-0.0242,-0.0252,-0.0338,-0.036,-0.0403,-0.0451,-0.0456,-0.0506,-0.0541,-0.0542,-0.0476,-0.0467,-0.046,-0.0428,-0.0519,0,0,0,0,0,0.001,0.0,-0.0039,-0.0043,-0.0055,-0.0103,-0.0121,-0.0146,-0.0198,-0.0223,-0.0289,-0.0354,-0.041,-0.0443,-0.0501,-0.0538,-0.0566,-0.0538,-0.053,-0.0523,-0.0509,-0.0543,-0.0537,-0.06,-0.06,-0.06,0,0,0.0026,0.0001,-0.0003,-0.0035,-0.0064,-0.0069,-0.0116,-0.013,-0.0136,-0.0234,-0.0273,-0.0335,-0.0413,-0.0454,-0.0476,-0.0494,-0.0517,-0.052,-0.0514,-0.0503,-0.054,-0.0534,-0.0529,-0.0599,-0.0599,-0.0599,0,0,0.0059,0.003,0.0034,0.002,-0.0008,-0.0039,-0.0033,-0.0083,-0.0109,-0.0147,-0.0216,-0.0265,-0.0353,-0.0404,-0.0441,-0.0421,-0.0475,-0.0435,-0.0377,-0.041,-0.0406,-0.0402,-0.0416,-0.0414,-0.0431,-0.0431,-0.0431,0,0.0085,0.008,0.0036,0.004,0.0035,-0.0015,-0.0002,-0.0035,-0.0095,-0.011,-0.0143,-0.0256,-0.0325,-0.037,-0.0366,-0.0404,-0.0426,-0.041,-0.04,-0.0397,-0.0395,-0.041,-0.0409,-0.0426,-0.0427,-0.0427,-0.0428,0,0.0122,0.012,0.0124,0.011,0.0099,0.0105,0.0063,0.0049,0.0011,-0.0025,-0.0072,-0.0168,-0.0232,-0.0257,-0.0314,-0.0326,-0.0347,-0.0387,-0.0423,-0.0383,-0.0402,-0.0403,-0.042,-0.0422,-0.0423,-0.0424,0,0,0.0186,0.0157,0.0162,0.0174,0.0139,0.0144,0.0132,0.0114,0.0134,0.005,0.0049,-0.0054,-0.0104,-0.0147,-0.0222,-0.0252,-0.0259,-0.0305,-0.0309,-0.0316,-0.0316,-0.0338,-0.0341,-0.0302,-0.0302,-0.0302,-0.0332,0,0.0236,0.0262,0.0228,0.0266,0.0279,0.0236,0.0236,0.0213,0.0189,0.0173,0.0067,0.0034,-0.0064,-0.0085,-0.0139,-0.0227,-0.0258,-0.0246,-0.0356,-0.0358,-0.0381,-0.0341,-0.0303,-0.0327,-0.0333,-0.0333,-0.0333,0,0.0291,0.0301,0.034,0.0351,0.0354,0.0371,0.0391,0.0387,0.0344,0.032,0.0257,0.0177,0.0095,0.0017,-0.0118,-0.0107,-0.0199,-0.0268,-0.0272,-0.032,-0.0381,-0.0372,-0.0329,-0.0334,-0.0334,-0.0334,-0.0334,0,0.0369,0.0386,0.0422,0.0428,0.0426,0.0447,0.0448,0.0437,0.0464,0.0421,0.0438,0.0307,0.0267,0.012,-0.0047,-0.0078,-0.0177,-0.0244,-0.0348,-0.0351,-0.0352,-0.0355,-0.0324,-0.0324,-0.0324,-0.0324,-0.0324,0,0.0437,0.0474,0.0471,0.05,0.0568,0.0532,0.0612,0.0601,0.0606,0.0656,0.0518,0.0538,0.0295,0.0194,0.0013,-0.0158,-0.0139,-0.0321,-0.0358,-0.0321,-0.032,-0.0361,-0.0365,-0.0325,-0.0324,-0.0324,-0.0324,0,0.0517,0.0507,0.0567,0.059,0.0608,0.0661,0.0721,0.0788,0.0771,0.0836,0.0822,0.0723,0.0592,0.0357,0.0145,-0.0047,-0.0226,-0.0292,-0.0224,-0.0253,-0.0394,-0.0393,-0.0415,-0.0416,-0.0416,-0.0417,-0.0418,0,0.0552,0.0589,0.0652,0.0709,0.0729,0.08,0.0862,0.0869,0.0951,0.0963,0.1009,0.0903,0.0831,0.0505,0.0174,-0.0135,-0.0184,-0.0301,-0.037,-0.0368,-0.0402,-0.04,-0.0398,-0.0333,-0.0332,-0.0332,-0.0332,0,0.0633,0.0658,0.0712,0.0829,0.0913,0.1011,0.11,0.1183,0.12,0.1248,0.1292,0.1228,0.0907,0.0594,0.0169,-0.0036,-0.0261,-0.031,-0.0311,-0.0321,-0.0295,-0.0328,-0.0328,-0.0331,-0.0331,-0.0331,-0.0331,-0.0331,0.07,0.0765,0.0845,0.0961,0.1065,0.1208,0.129,0.1395,0.1508,0.1558,0.1499,0.14,0.1034,0.049,0.0128,-0.0243,-0.0243,-0.0386,-0.0385,-0.0384,-0.0374,-0.0353,-0.0395,-0.0396,-0.0396,-0.0397,-0.0397,0,0.078,0.0857,0.0972,0.1107,0.1233,0.1273,0.1441,0.1517,0.1647,0.1691,0.1681,0.1342,0.0972,0.0569,0.0004,-0.0349,-0.0372,-0.0435,-0.0397,-0.0395,-0.0394,-0.0384,-0.0409,-0.041,-0.0411,-0.0412,0,0,0.0827,0.095,0.1012,0.1222,0.132,0.1477,0.157,0.1689,0.1758,0.1793,0.1732,0.1587,0.1091,0.0685,0.0222,-0.0097,-0.016,-0.0147,-0.0098,0.0005,0.0011,-0.0325,-0.0303,0,0,0,0,0]}],[{"header":{"parameterUnit":"m.s-1","parameterCategory":2,"la1":30.2991,"la2":30.254,"lo1":-89.0895,"lo2":-89.0444,"dy":0.0017,"dx":0.0017,"nx":28,"ny":28,"refTime":"2024-03-28T03:00:00:Z","depth":"4","parameterNumber":2,"parameterNumberName":"U-component_of_CURRENTS"},"data":[0,0,0,0,0,0,0,0,0,0,0,0,0,0,0,0,0,0,0,0,0,0,0,0,0,0,0,0,0,0,0,0,0,0,0,0,0,0,0,0,0,0,0,0,0,0,0,0,0,0,0,0,0,0,0,0,0,0,0.1548,0.1549,0,0.1597,0.1597,0.1597,0.1636,0.1637,0.1637,0.1638,0.1727,0.1728,0.173,0,0,0,0,0,0,0,0,0,0,0,0,0,0.1475,0.1476,0.1548,0.1549,0.155,0.1597,0.1597,0.1597,0.1636,0.1637,0.1638,0.1638,0.1726,0.1728,0.173,0,0,0,0,0,0,0,0,0,0,0,0,0,0.151,0.1476,0.1548,0.1578,0.1581,0.1597,0.1597,0.1597,0.1636,0.1637,0.1638,0.1639,0.1726,0.1728,0.1731,0.1724,0,0,0.1738,0.1739,0,0,0,0,0,0,0,0,0.1508,0.1512,0.1573,0.1576,0.158,0.1615,0.1604,0.1643,0.1635,0.1611,0.1638,0.1639,0.1695,0.17,0.17,0.1728,0.1732,0.1738,0.174,0.1741,0.1742,0,0,0,0,0,0,0,0.1505,0.151,0.1564,0.1574,0.1578,0.1584,0.159,0.1611,0.1644,0.1613,0.1617,0.1628,0.1697,0.1698,0.1703,0.1733,0.1738,0.1741,0.1742,0.1743,0.1892,0.1895,0,0,0,0,0,0,0.1507,0.1508,0.1562,0.1565,0.155,0.1585,0.1591,0.1599,0.1643,0.1651,0.1627,0.163,0.1693,0.17,0.1706,0.1813,0.1741,0.1743,0.1745,0.189,0.1893,0.1895,0,0,0,0,0,0,0.1505,0.1511,0.156,0.1541,0.1548,0.1586,0.1594,0.16,0.1644,0.1654,0.1662,0.167,0.1694,0.1703,0.1767,0.1812,0.1744,0.1747,0.1887,0.1891,0.1894,0.1954,0,0,0,0,0,0,0.1503,0.151,0.1534,0.1541,0.155,0.1596,0.1593,0.16,0.1648,0.1653,0.1693,0.17,0.1696,0.1763,0.177,0.1814,0.1749,0.1884,0.1889,0.1893,0.1949,0.1959,0.1968,0,0,0,0,0,0.15,0.1523,0.1535,0.1543,0.1576,0.1597,0.1603,0.1629,0.1649,0.1672,0.1708,0.1701,0.1797,0.1767,0.1774,0.1821,0.1882,0.1887,0.1893,0.1944,0.1957,0.1968,0,0,0,0,0,0,0.1508,0.153,0.1543,0.1574,0.1598,0.1606,0.1635,0.1654,0.1698,0.1716,0.1727,0.1736,0.1811,0.1811,0.1778,0.188,0.184,0.1848,0.1878,0.1889,0.1899,0.1887,0.1751,0,0,0,0,0,0.152,0.1546,0.1563,0.1595,0.1607,0.163,0.1651,0.1669,0.17,0.1722,0.1755,0.1794,0.183,0.1858,0.1886,0.1939,0.1942,0.1977,0.1986,0.1994,0.1992,0.2038,0.2051,0.1914,0.1914,0.1913,0,0,0.1536,0.1551,0.157,0.16,0.1619,0.1637,0.1645,0.1687,0.1715,0.1724,0.1794,0.1831,0.1854,0.1914,0.1947,0.1925,0.204,0.2001,0.2008,0.2001,0.2045,0.2059,0.207,0.1917,0.1917,0.1916,0,0,0.1559,0.1591,0.1612,0.1634,0.1671,0.1676,0.1699,0.1734,0.1766,0.1827,0.1848,0.1909,0.1971,0.1989,0.2005,0.2085,0.209,0.2118,0.2155,0.2201,0.2212,0.2222,0.2254,0.2266,0.2121,0.2121,0.2121,0,0.1584,0.1601,0.1624,0.1646,0.1671,0.1698,0.1723,0.175,0.181,0.1845,0.1862,0.1978,0.1995,0.2062,0.2094,0.2104,0.2137,0.2105,0.2212,0.2221,0.223,0.2261,0.2273,0.2124,0.2124,0.2124,0.2123,0,0.1602,0.1633,0.165,0.1679,0.1711,0.1741,0.1773,0.1823,0.1871,0.1901,0.2003,0.2041,0.2106,0.2134,0.2138,0.2224,0.2231,0.2217,0.2175,0.2247,0.2276,0.2288,0.2129,0.2128,0.2127,0.2126,0,0,0.1604,0.1653,0.1662,0.1684,0.1735,0.1757,0.1813,0.1863,0.1914,0.1989,0.2058,0.2136,0.2178,0.22,0.2231,0.2277,0.2366,0.2288,0.2289,0.2307,0.2484,0.2348,0.2347,0.239,0.2392,0.2394,0.2482,0,0.1612,0.1646,0.1677,0.1726,0.1742,0.1798,0.1848,0.1908,0.1967,0.2041,0.2101,0.2182,0.2195,0.2253,0.23,0.2362,0.2401,0.2344,0.2422,0.2423,0.2283,0.2357,0.2401,0.249,0.2493,0.2495,0.2496,0,0.16,0.1629,0.1674,0.1744,0.1762,0.1807,0.1899,0.1952,0.2046,0.2112,0.22,0.2239,0.2336,0.2325,0.2455,0.2434,0.2461,0.2492,0.2496,0.235,0.2309,0.2403,0.2517,0.2516,0.2514,0.2513,0.2511,0,0.1549,0.1621,0.1659,0.1685,0.1771,0.1826,0.1883,0.1981,0.2046,0.2166,0.2233,0.2332,0.2417,0.2472,0.2533,0.2518,0.2656,0.2627,0.2521,0.2512,0.2579,0.2567,0.2688,0.2687,0.2687,0.2687,0.2687,0,0.1509,0.1546,0.165,0.1667,0.1743,0.1821,0.1905,0.1992,0.2112,0.2195,0.2276,0.2355,0.2468,0.254,0.2565,0.2589,0.2682,0.2536,0.2528,0.2605,0.2595,0.2588,0.2575,0.269,0.269,0.2689,0.2688,0,0.1434,0.1497,0.1556,0.1671,0.1714,0.1778,0.1915,0.1967,0.2116,0.2229,0.2277,0.242,0.2529,0.2592,0.2696,0.2633,0.2656,0.2627,0.2716,0.2711,0.2472,0.2462,0.2518,0.2514,0.2511,0.2508,0.2505,0,0.1394,0.1413,0.1546,0.1592,0.1652,0.1751,0.1804,0.196,0.2021,0.2251,0.229,0.2444,0.2515,0.2555,0.263,0.2653,0.262,0.2604,0.2517,0.2469,0.2457,0.2452,0.2447,0.25,0.2499,0.2498,0.2497,0,0.1319,0.1384,0.1432,0.1525,0.1601,0.167,0.1769,0.1804,0.1991,0.214,0.2267,0.2322,0.2433,0.2488,0.2522,0.2528,0.26,0.2567,0.2573,0.2492,0.2448,0.2438,0.2437,0.2486,0.2487,0.2488,0.2489,0,0.1277,0.13,0.137,0.1449,0.154,0.158,0.1632,0.1718,0.1812,0.2066,0.2108,0.2278,0.2432,0.2425,0.2457,0.2454,0.2413,0.2327,0.2344,0.2358,0.226,0.2178,0.2134,0,0,0,0,0,0.122,0.1227,0.1281,0.1362,0.1448,0.1504,0.1606,0.1661,0.183,0.1884,0.2002,0.2096,0.2183,0.2255,0.2218,0.2353,0.2394,0.2297,0.2296,0.242,0.2434,0.233,0,0,0,0,0,0,0.1177,0.1218,0.124,0.1276,0.1317,0.1395,0.1455,0.1562,0.159,0.1781,0.1829,0.1993,0.2082,0.2204,0.2194,0.2214,0.2174,0.2405,0.24,0.2412,0.2425,0.2436,0.2334,0,0,0,0,0]},{"header":{"parameterUnit":"m.s-1","parameterCategory":2,"la1":30.2991,"la2":30.254,"lo1":-89.0895,"lo2":-89.0444,"dy":0.0017,"dx":0.0017,"nx":28,"ny":28,"refTime":"2024-03-28T03:00:00:Z","depth":"4","parameterNumber":3,"parameterNumberName":"V-component_of_CURRENTS"},"data":[0,0,0,0,0,0,0,0,0,0,0,0,0,0,0,0,0,0,0,0,0,0,0,0,0,0,0,0,0,0,0,0,0,0,0,0,0,0,0,0,0,0,0,0,0,0,0,0,0,0,0,0,0,0,0,0,0,0,0.0136,0.0136,0,0.0107,0.0107,0.0106,0.0098,0.0098,0.0098,0.0098,0.0063,0.0062,0.0061,0,0,0,0,0,0,0,0,0,0,0,0,0,0.0165,0.0165,0.0136,0.0136,0.0136,0.0107,0.0107,0.0106,0.0098,0.0098,0.0098,0.0098,0.0064,0.0062,0.0061,0,0,0,0,0,0,0,0,0,0,0,0,0,0.0145,0.0164,0.0136,0.0128,0.0127,0.0107,0.0107,0.0106,0.0098,0.0098,0.0098,0.0098,0.0064,0.0062,0.0061,0.0045,0,0,0.0056,0.0055,0,0,0,0,0,0,0,0,0.0147,0.0144,0.013,0.0129,0.0128,0.0107,0.0104,0.0085,0.0097,0.0108,0.0098,0.0099,0.0077,0.0074,0.0068,0.0043,0.0042,0.0055,0.0054,0.0054,0.0053,0,0,0,0,0,0,0,0.0148,0.0145,0.0124,0.0129,0.0128,0.0119,0.0117,0.01,0.0091,0.0107,0.0107,0.0104,0.0077,0.0069,0.0067,0.0041,0.0056,0.0054,0.0053,0.0052,-0.0021,-0.0022,0,0,0,0,0,0,0.0153,0.0147,0.0125,0.0123,0.0138,0.0119,0.0116,0.0113,0.0091,0.0089,0.0104,0.0104,0.0072,0.0069,0.0066,0.0049,0.0054,0.0052,0.0051,-0.002,-0.0021,-0.0022,0,0,0,0,0,0,0.0154,0.0151,0.0126,0.0135,0.0131,0.0118,0.0114,0.0112,0.0106,0.0089,0.0086,0.0101,0.0072,0.0068,0.0044,0.0048,0.0051,0.005,-0.0019,-0.0021,-0.0022,0.0014,0,0,0,0,0,0,0.0155,0.0152,0.0151,0.0135,0.0131,0.0121,0.0114,0.0111,0.0104,0.0104,0.0085,0.0082,0.0072,0.0047,0.0042,0.0046,0.0049,-0.0018,-0.002,-0.0021,0.0014,0.0014,0.0014,0,0,0,0,0,0.0156,0.0159,0.0151,0.0149,0.0131,0.0121,0.0118,0.0109,0.0104,0.0104,0.0082,0.0083,0.0032,0.0044,0.004,0.0043,-0.0017,-0.0019,-0.0021,0.0014,0.0014,0.0014,0,0,0,0,0,0,0.0171,0.0157,0.0149,0.0148,0.0136,0.012,0.012,0.0109,0.0092,0.0094,0.0072,0.0067,0.0045,0.0032,0.0046,0.0012,0.0007,0.0004,0.0036,0.0035,0.0035,0.0073,0.0047,0,0,0,0,0,0.0174,0.0173,0.0156,0.0154,0.0151,0.0134,0.0128,0.0123,0.0106,0.0099,0.0081,0.0058,0.0031,0.0025,0.0,-0.0013,-0.0033,-0.0018,-0.0018,-0.0017,0.0007,-0.0032,-0.0033,-0.0029,-0.0029,-0.0029,0,0,0.018,0.0172,0.0171,0.0158,0.0149,0.0152,0.0131,0.013,0.0134,0.0097,0.0093,0.0056,0.0023,0.0005,-0.0005,-0.0002,-0.0035,-0.002,-0.0019,0.0005,-0.0035,-0.0035,-0.0035,-0.0031,-0.0031,-0.003,0,0,0.0196,0.0184,0.0191,0.0186,0.0178,0.0167,0.0167,0.015,0.0147,0.0132,0.0099,0.0068,0.0035,0.0013,-0.0003,-0.0019,-0.004,-0.0035,0.0007,-0.0033,-0.0032,-0.0032,-0.0077,-0.0081,-0.0028,-0.0027,-0.0027,0,0.0204,0.021,0.0191,0.02,0.0205,0.0176,0.0191,0.018,0.0157,0.0157,0.0139,0.0076,0.0045,0.0022,0.0014,-0.0013,-0.0044,0.0014,-0.0029,-0.003,-0.003,-0.0076,-0.0081,-0.0026,-0.0026,-0.0026,-0.0026,0,0.0227,0.0234,0.024,0.0242,0.0242,0.0251,0.0237,0.0233,0.0218,0.0206,0.0178,0.0124,0.0095,0.0065,0.0038,0.0014,-0.0011,-0.003,-0.002,-0.0028,-0.0077,-0.0083,-0.0024,-0.0024,-0.0025,-0.0025,0,0,0.0246,0.0255,0.0259,0.0278,0.0271,0.028,0.0284,0.0284,0.0299,0.0258,0.0262,0.0199,0.0169,0.0148,0.0096,0.0061,0.0014,0.0022,0.0019,-0.0006,-0.008,-0.0097,-0.0105,-0.0014,-0.0014,-0.0014,-0.012,0,0.0273,0.0305,0.03,0.0338,0.0357,0.0344,0.0356,0.0354,0.0339,0.0332,0.0274,0.0252,0.0201,0.0181,0.0137,0.0042,0.0004,0.0045,-0.0082,-0.0086,-0.0086,-0.011,-0.0016,-0.0124,-0.0126,-0.0127,-0.0127,0,0.0304,0.0324,0.0365,0.0403,0.0412,0.0433,0.046,0.0468,0.0447,0.0433,0.0398,0.0346,0.0282,0.0238,0.0101,0.0127,0.0039,-0.0036,-0.0042,-0.0064,-0.0112,-0.0114,-0.0138,-0.0137,-0.0136,-0.0136,-0.0135,0,0.0341,0.0378,0.0417,0.0429,0.0456,0.0487,0.0507,0.0508,0.0528,0.0501,0.0493,0.0413,0.0366,0.0253,0.0097,0.0099,-0.0063,-0.0082,-0.0179,-0.0182,-0.0148,-0.0147,-0.0164,-0.0164,-0.0164,-0.0163,-0.0163,0,0.0378,0.0414,0.0448,0.0473,0.0538,0.0546,0.0614,0.0611,0.0618,0.0639,0.0555,0.0529,0.0368,0.0251,0.0116,-0.0054,-0.0051,-0.0167,-0.0206,-0.0136,-0.0133,-0.0154,-0.0151,-0.0167,-0.0166,-0.0166,-0.0165,0,0.041,0.0426,0.0483,0.0533,0.0559,0.0612,0.069,0.0729,0.0721,0.0738,0.0728,0.0612,0.0451,0.0274,0.0073,-0.0028,-0.0189,-0.0249,-0.0168,-0.0202,-0.0285,-0.028,-0.0355,-0.0356,-0.0357,-0.0358,-0.0359,0,0.0424,0.0454,0.0532,0.0576,0.0608,0.0692,0.0745,0.0777,0.0813,0.0783,0.0779,0.0638,0.0537,0.0243,0.0051,-0.0209,-0.0243,-0.0315,-0.0287,-0.0272,-0.0303,-0.0296,-0.0289,-0.0361,-0.0361,-0.0361,-0.0362,0,0.0449,0.048,0.0531,0.0622,0.0695,0.0778,0.0856,0.0882,0.0905,0.0899,0.0826,0.0671,0.0479,0.0246,0.0035,-0.0149,-0.026,-0.0328,-0.0326,-0.03,-0.0281,-0.0308,-0.0301,-0.0366,-0.0365,-0.0365,-0.0365,0,0.0471,0.0514,0.0582,0.0669,0.0759,0.083,0.0871,0.0908,0.0939,0.0903,0.0877,0.0671,0.0565,0.0275,0.008,-0.0106,-0.0145,-0.0178,-0.0184,-0.0182,-0.0104,-0.0052,-0.0095,0,0,0,0,0,0.0486,0.0541,0.0619,0.0715,0.0805,0.086,0.0926,0.0954,0.0971,0.0934,0.0915,0.0738,0.0447,0.031,0.0121,0.0039,-0.0194,-0.0187,-0.0238,-0.0388,-0.0383,-0.0322,0,0,0,0,0,0,0.0497,0.0574,0.0619,0.0737,0.0811,0.091,0.0953,0.096,0.0941,0.0927,0.0768,0.0717,0.0418,0.0563,0.0129,0.0069,0.0016,-0.032,-0.0324,-0.0391,-0.0386,-0.0383,-0.0318,0,0,0,0,0]}]]